Weather History for Molokai, HI

Change the Weather History Date:

Tuesday, January 29, 2013

  Actual Average Record
Temperature  
Mean Temperature 68 °F -  
Max Temperature 75 °F 77 °F 84 °F (1981)
Min Temperature 62 °F 62 °F 56 °F (1987)
Cooling Degree Days 4    
Growing Degree Days 18 (Base 50)    
Moisture  
Dew Point 65 °F    
Average Humidity 83    
Maximum Humidity 99    
Minimum Humidity 73    
Precipitation  
Precipitation 0.72 in - - ()
Sea Level Pressure  
Sea Level Pressure 29.99 in    
Wind  
Wind Speed 1 mph (NE)    
Max Wind Speed 6 mph    
Max Gust Speed -    
Visibility 10 miles    
Events Rain    
Averages and records for this station are not official NWS values.
T = Trace of Precipitation, MM = Missing Value Source: NWS Daily Summary

Daily Weather History Graph

Daily Weather History Graph

Search for Another Location

Airport:

Trip Planner

Search our weather history database for the weather conditions in past years. The results will help you decide how hot, cold, wet, or windy it might be!

Date:

Astronomy

Jan. 29, 2013 Rise Set
Actual Time 7:06 AM HST 6:17 PM HST
Civil Twilight 6:43 AM HST 6:40 PM HST
Nautical Twilight 6:16 AM HST 7:07 PM HST
Astronomical Twilight 5:49 AM HST 7:33 PM HST
Moon 8:53 PM HST (1/29) 8:36 AM HST (1/29)
Length of Visible Light 11h 57m
Length of Day
11h 10m
Waning Gibbous, 92% of the Moon is Illuminated
Jan 29
Waning Gibbous
Feb 3
Last Quarter
Feb 9
New
Feb 17
First Quarter
Feb 25
Full

Hourly Weather History & Observations

Time (HST) Temp. Dew Point Humidity Pressure Visibility Wind Dir Wind Speed Gust Speed Precip Events Conditions
12:54 AM - - N/A% 29.97 in 10.0 mi Calm Calm - N/A   Partly Cloudy
1:54 AM - - N/A% 29.96 in 10.0 mi Calm Calm - N/A   Clear
2:54 AM - - N/A% 29.95 in 10.0 mi Calm Calm - N/A   Clear
3:54 AM - - N/A% 29.95 in 10.0 mi Calm Calm - N/A   Clear
4:54 AM - - N/A% 29.95 in 10.0 mi Calm Calm - N/A   Mostly Cloudy
5:54 AM 62.6 °F 61.0 °F 94% 29.98 in 10.0 mi NNW 3.5 mph - N/A   Scattered Clouds
6:54 AM 62.6 °F 62.1 °F 98% 29.98 in 10.0 mi Calm Calm - N/A   Mostly Cloudy
7:54 AM 64.4 °F 64.0 °F 99% 29.99 in 10.0 mi Calm Calm - N/A   Mostly Cloudy
8:54 AM 73.9 °F 64.9 °F 73% 30.00 in 10.0 mi Calm Calm - N/A   Scattered Clouds
9:54 AM 71.1 °F 64.0 °F 78% 30.02 in 10.0 mi Calm Calm - 0.00 in Rain Light Rain
10:54 AM 73.9 °F 66.0 °F 76% 30.01 in 10.0 mi Calm Calm - N/A   Mostly Cloudy
11:44 AM 71.6 °F 64.4 °F 78% 29.99 in 10.0 mi Variable 5.8 mph - 0.13 in Rain Light Rain
11:54 AM 73.0 °F 66.0 °F 79% 29.99 in 10.0 mi North 4.6 mph - 0.13 in   Overcast
12:04 PM 75.2 °F 66.2 °F 73% 29.99 in 10.0 mi North 5.8 mph - N/A   Overcast
12:54 PM 71.1 °F 66.0 °F 84% 29.98 in 10.0 mi NNE 5.8 mph - 0.04 in   Mostly Cloudy
1:07 PM 71.6 °F 66.2 °F 83% 29.98 in 10.0 mi Variable 3.5 mph - 0.00 in Rain Light Rain
1:54 PM - - N/A% 29.97 in 5.0 mi Calm Calm - 0.33 in Rain Heavy Rain
2:54 PM 68.0 °F 64.9 °F 90% 29.95 in 4.0 mi Calm Calm - 0.22 in   Overcast
3:01 PM - - N/A% 29.95 in 10.0 mi Calm Calm - N/A   Overcast
3:54 PM 73.9 °F 64.9 °F 73% 29.95 in 10.0 mi Calm Calm - N/A   Overcast
4:54 PM 72.0 °F 66.9 °F 84% 29.97 in 10.0 mi ESE 4.6 mph - N/A   Overcast
5:54 PM - - N/A% 29.98 in 10.0 mi Calm Calm - N/A   Mostly Cloudy
6:54 PM - - N/A% 30.00 in 10.0 mi SE 3.5 mph - N/A   Overcast
7:54 PM - - N/A% 30.02 in 10.0 mi Calm Calm - N/A   Overcast
8:54 PM - - N/A% 30.03 in 10.0 mi SSE 3.5 mph - N/A   Overcast
9:54 PM - - N/A% 30.04 in 10.0 mi Calm Calm - N/A   Mostly Cloudy
10:54 PM - - N/A% 30.04 in 10.0 mi Calm Calm - N/A   Scattered Clouds
11:54 PM - - N/A% 30.04 in 10.0 mi Calm Calm - N/A   Overcast